TimeCDT,TemperatureF,Dew PointF,Humidity,Sea Level PressureIn,VisibilityMPH,Wind Direction,Wind SpeedMPH,Gust SpeedMPH,PrecipitationIn,Events,Conditions,WindDirDegrees,DateUTC
12:15 AM,67.6,57.2,69,29.90,10.0,NNE,3.5,-,N/A,,Clear,30,2013-06-18 05:15:00
12:35 AM,66.9,57.9,73,29.89,10.0,North,3.5,-,N/A,,Scattered Clouds,10,2013-06-18 05:35:00
12:55 AM,66.0,60.4,82,29.89,10.0,North,4.6,-,N/A,,Scattered Clouds,360,2013-06-18 05:55:00
1:15 AM,65.1,61.3,88,29.89,10.0,North,5.8,-,N/A,,Clear,350,2013-06-18 06:15:00
1:35 AM,64.8,61.5,89,29.89,10.0,North,6.9,-,N/A,,Scattered Clouds,350,2013-06-18 06:35:00
1:55 AM,64.8,61.2,88,29.89,10.0,North,6.9,-,N/A,,Scattered Clouds,350,2013-06-18 06:55:00
2:15 AM,64.2,61.3,90,29.89,10.0,North,3.5,-,N/A,,Clear,350,2013-06-18 07:15:00
2:35 AM,63.7,61.3,92,29.89,10.0,Calm,Calm,-,N/A,,Clear,0,2013-06-18 07:35:00
2:55 AM,63.7,61.7,93,29.89,10.0,Calm,Calm,-,N/A,,Scattered Clouds,0,2013-06-18 07:55:00
3:15 AM,63.1,61.5,94,29.91,10.0,NW,3.5,-,N/A,,Scattered Clouds,310,2013-06-18 08:15:00
3:35 AM,61.9,60.4,95,29.90,10.0,North,4.6,-,N/A,,Scattered Clouds,360,2013-06-18 08:35:00
3:55 AM,61.5,59.9,94,29.90,10.0,NNW,3.5,-,N/A,,Scattered Clouds,340,2013-06-18 08:55:00
4:15 AM,61.5,60.6,97,29.91,10.0,NW,4.6,-,N/A,,Mostly Cloudy,310,2013-06-18 09:15:00
4:35 AM,61.9,60.8,96,29.91,10.0,Calm,Calm,-,N/A,,Mostly Cloudy,0,2013-06-18 09:35:00
4:55 AM,61.7,60.8,97,29.92,10.0,Calm,Calm,-,N/A,,Scattered Clouds,0,2013-06-18 09:55:00
5:15 AM,61.0,60.4,98,29.92,10.0,Calm,Calm,-,N/A,,Clear,0,2013-06-18 10:15:00
5:35 AM,60.4,60.1,99,29.93,10.0,West,3.5,-,N/A,,Mostly Cloudy,280,2013-06-18 10:35:00
5:55 AM,60.8,60.4,99,29.93,10.0,North,3.5,-,N/A,,Mostly Cloudy,350,2013-06-18 10:55:00
6:15 AM,61.3,60.8,98,29.93,10.0,North,5.8,-,N/A,,Mostly Cloudy,360,2013-06-18 11:15:00
6:35 AM,61.3,60.6,97,29.94,10.0,North,4.6,-,N/A,,Scattered Clouds,350,2013-06-18 11:35:00
6:55 AM,61.7,60.8,97,29.94,10.0,North,5.8,-,N/A,,Clear,360,2013-06-18 11:55:00
7:15 AM,63.3,61.5,94,29.95,10.0,North,5.8,-,N/A,,Clear,360,2013-06-18 12:15:00
7:35 AM,65.1,62.1,90,29.96,10.0,NNE,8.1,-,N/A,,Clear,20,2013-06-18 12:35:00
7:55 AM,66.4,62.2,86,29.97,10.0,NNE,9.2,-,N/A,,Clear,30,2013-06-18 12:55:00
8:15 AM,66.4,62.1,86,29.98,10.0,North,8.1,-,N/A,,Scattered Clouds,360,2013-06-18 13:15:00
8:35 AM,66.9,62.4,85,29.98,10.0,NNE,10.4,-,N/A,,Scattered Clouds,20,2013-06-18 13:35:00
8:55 AM,68.4,63.1,83,29.98,10.0,NNE,10.4,-,N/A,,Clear,20,2013-06-18 13:55:00
9:15 AM,68.7,63.5,83,29.98,10.0,NNE,11.5,-,N/A,,Scattered Clouds,30,2013-06-18 14:15:00
9:35 AM,68.7,63.7,84,29.98,10.0,NE,6.9,-,N/A,,Clear,50,2013-06-18 14:35:00
9:55 AM,68.9,64.0,84,29.98,10.0,NNE,11.5,-,N/A,,Scattered Clouds,30,2013-06-18 14:55:00
10:15 AM,68.2,63.5,85,29.98,10.0,NNE,8.1,-,N/A,,Mostly Cloudy,30,2013-06-18 15:15:00
10:35 AM,68.7,63.3,83,29.98,10.0,NNE,11.5,16.1,N/A,,Scattered Clouds,20,2013-06-18 15:35:00
10:55 AM,69.8,63.3,80,29.98,10.0,NE,11.5,-,N/A,,Scattered Clouds,40,2013-06-18 15:55:00
11:15 AM,70.9,63.7,78,29.98,10.0,NNE,9.2,16.1,N/A,,Clear,20,2013-06-18 16:15:00
11:35 AM,71.6,63.7,76,29.98,10.0,NNE,10.4,-,N/A,,Clear,30,2013-06-18 16:35:00
11:55 AM,72.3,63.1,73,29.98,10.0,NNE,10.4,-,N/A,,Clear,30,2013-06-18 16:55:00
12:15 PM,73.4,63.3,71,29.98,10.0,NNE,6.9,-,N/A,,Scattered Clouds,20,2013-06-18 17:15:00
12:35 PM,73.9,63.3,69,29.98,10.0,NE,5.8,-,N/A,,Scattered Clouds,40,2013-06-18 17:35:00
12:55 PM,73.9,62.6,68,29.98,10.0,NNE,10.4,-,N/A,,Mostly Cloudy,20,2013-06-18 17:55:00
1:15 PM,74.1,62.2,66,29.99,10.0,NNE,9.2,-,N/A,,Mostly Cloudy,30,2013-06-18 18:15:00
1:35 PM,74.1,62.8,68,29.99,10.0,NNE,6.9,-,N/A,,Mostly Cloudy,20,2013-06-18 18:35:00
1:55 PM,74.7,63.0,67,29.98,10.0,North,11.5,-,N/A,,Scattered Clouds,10,2013-06-18 18:55:00
2:15 PM,74.8,62.1,64,29.98,10.0,NNE,10.4,-,N/A,,Scattered Clouds,20,2013-06-18 19:15:00
2:35 PM,75.2,61.0,61,29.98,10.0,NNE,6.9,-,N/A,,Clear,20,2013-06-18 19:35:00
2:55 PM,75.7,60.4,59,29.98,10.0,North,5.8,-,N/A,,Scattered Clouds,10,2013-06-18 19:55:00
3:15 PM,75.9,60.8,59,29.97,10.0,ENE,8.1,-,N/A,,Scattered Clouds,60,2013-06-18 20:15:00
3:35 PM,76.5,60.4,58,29.97,10.0,NE,11.5,-,N/A,,Mostly Cloudy,40,2013-06-18 20:35:00
3:55 PM,77.4,60.1,55,29.97,10.0,NE,10.4,-,N/A,,Mostly Cloudy,40,2013-06-18 20:55:00
4:15 PM,76.3,59.9,57,29.97,10.0,North,10.4,-,N/A,,Mostly Cloudy,350,2013-06-18 21:15:00
4:35 PM,76.3,61.9,61,29.96,10.0,NNW,11.5,16.1,N/A,,Scattered Clouds,340,2013-06-18 21:35:00
4:55 PM,75.2,61.3,62,29.97,10.0,NNW,17.3,21.9,N/A,,Clear,340,2013-06-18 21:55:00
5:15 PM,74.5,60.4,61,29.97,10.0,North,12.7,19.6,N/A,,Clear,350,2013-06-18 22:15:00
5:35 PM,73.6,59.9,62,29.97,10.0,NNW,15.0,19.6,N/A,,Clear,340,2013-06-18 22:35:00
5:55 PM,72.9,59.0,62,29.97,10.0,NNW,17.3,20.7,N/A,,Clear,340,2013-06-18 22:55:00
6:15 PM,72.0,58.6,63,29.98,10.0,NNW,12.7,-,N/A,,Clear,340,2013-06-18 23:15:00
6:35 PM,71.2,58.3,64,29.98,10.0,North,11.5,-,N/A,,Clear,350,2013-06-18 23:35:00
6:55 PM,70.7,58.1,64,29.98,10.0,North,12.7,17.3,N/A,,Clear,350,2013-06-18 23:55:00
7:15 PM,70.0,58.1,66,29.98,10.0,North,11.5,-,N/A,,Clear,360,2013-06-19 00:15:00
7:35 PM,69.1,58.3,68,29.99,10.0,North,10.4,-,N/A,,Clear,350,2013-06-19 00:35:00
7:55 PM,68.0,58.1,71,30.00,10.0,North,11.5,-,N/A,,Clear,360,2013-06-19 00:55:00
8:15 PM,66.7,57.7,73,30.00,10.0,North,11.5,-,N/A,,Clear,360,2013-06-19 01:15:00
8:35 PM,65.5,57.4,75,30.01,10.0,North,9.2,-,N/A,,Clear,360,2013-06-19 01:35:00
8:55 PM,64.2,57.4,78,30.01,10.0,North,8.1,-,N/A,,Clear,360,2013-06-19 01:55:00
9:15 PM,63.0,58.1,84,30.01,10.0,North,8.1,-,N/A,,Clear,10,2013-06-19 02:15:00
9:35 PM,61.7,58.3,89,30.03,10.0,NNE,5.8,-,N/A,,Clear,20,2013-06-19 02:35:00
9:55 PM,60.6,58.1,91,30.03,10.0,NNE,6.9,-,N/A,,Clear,20,2013-06-19 02:55:00
10:15 PM,60.3,58.1,93,30.03,10.0,NNE,5.8,-,N/A,,Clear,20,2013-06-19 03:15:00
10:35 PM,59.7,58.1,94,30.03,10.0,North,5.8,-,N/A,,Clear,10,2013-06-19 03:35:00
10:55 PM,58.8,57.7,96,30.03,10.0,NE,4.6,-,N/A,,Clear,40,2013-06-19 03:55:00
11:15 PM,60.1,57.2,90,30.03,10.0,NE,5.8,-,N/A,,Clear,50,2013-06-19 04:15:00
11:35 PM,60.8,55.8,83,30.04,10.0,NE,4.6,-,N/A,,Clear,50,2013-06-19 04:35:00
11:55 PM,60.3,54.9,82,30.05,10.0,NE,3.5,-,N/A,,Clear,50,2013-06-19 04:55:00